Location: Bale
(38.5541°N, 122.5105°W)
Time: 08:02:01
(UTC+00:00)

Daily predictions for brighter satellites

Satellite Brightness Start Highest point End
(mag) Time Altitude Azimuth Time Altitude Azimuth Time Altitude Azimuth
Cosmos 1980 Rocket 2.4 12:48:35 66° SE 12:49:03 69° ESE 12:54:42 10° NNE
SEDSat Delta rocket 4.5 12:50:45 43° S 12:50:45 43° S 12:55:56 10° ESE
Cosmos 2074 Rocket 4.5 12:53:05 46° S 12:53:05 46° S 12:57:20 10° S
BREEZE-M DEB (TANK) 3.9 12:52:50 47° WNW 12:56:02 81° SW 13:00:23 10° SE
Cosmos 1697 Rocket 4.0 12:59:15 27° N 12:59:15 27° N 13:01:53 10° NNE
Cosmos 44 Rocket 3.3 13:05:55 73° ESE 13:05:55 73° ESE 13:10:18 10° SSE
SKYMED 2 4.3 13:05:50 10° SSE 13:10:01 52° ENE 13:12:01 28° NNE
Cosmos 1758 Rocket 4.2 13:14:49 18° N 13:17:57 54° E 13:22:17 10° SSE
CZ-3A R/B 4.4 13:12:51 23° SW 13:18:17 42° SSE 13:55:35 10° ESE
Meteor 1-21 Rocket 4.4 13:16:47 10° N 13:22:41 77° E 13:28:36 10° SSE
STARLINK-34 4.4 13:23:50 39° NNE 13:23:50 39° NNE 13:26:40 10° NE
COSMOS 2455 2.7 13:22:08 39° SW 13:24:25 68° WNW 13:30:25 10° NNE
STARLINK-24 4.4 13:25:29 39° N 13:25:29 39° N 13:28:23 10° NE
ATLAS 3B R/B 4.2 13:18:56 10° NNW 13:24:45 30° NE 13:30:40 10° ESE
STARLINK-81 4.2 13:26:40 44° N 13:26:40 44° N 13:29:45 10° NE
Cosmos 2082 4.0 13:27:04 44° WSW 13:27:04 44° WSW 13:32:10 10° S
STARLINK-54 4.3 13:28:33 40° N 13:28:33 40° N 13:31:34 10° NE
NOSS 3-4 (A) 3.6 13:22:20 10° SSW 13:28:14 68° ESE 13:34:23 10° NE
NOSS 3-4 (C) 3.7 13:22:27 10° SSW 13:28:20 67° ESE 13:34:29 10° NE
STARLINK-77 4.1 13:29:51 44° N 13:29:51 44° N 13:33:02 10° NE
STARLINK-25 4.1 13:31:28 44° N 13:31:28 44° N 13:34:42 10° NE
Okean O Rocket 2.8 13:26:44 10° NNE 13:31:00 44° E 13:35:12 10° S
STARLINK-71 4.3 13:33:21 39° N 13:33:21 39° N 13:36:31 10° NE
USA 215 3.6 13:27:22 10° ESE 13:33:46 61° NE 13:38:17 21° NW
STARLINK-79 4.1 13:34:36 43° N 13:34:36 43° N 13:37:57 10° NE
Meteor 2-17 Rocket 4.3 13:28:45 10° N 13:34:50 78° W 13:40:51 10° S
STARLINK-78 4.1 13:36:16 42° NNW 13:36:16 42° NNW 13:39:40 10° NE
Lacrosse 5 3.3 13:31:16 10° S 13:35:53 37° SE 13:40:32 10° ENE
Cosmos 2297 Rocket 4.3 13:40:11 10° SW 13:40:11 10° SW 13:40:14 10° SW
Nadezhda 1 Rocket 4.2 13:30:59 10° SSW 13:36:40 41° WNW 13:42:23 10° N
CZ-4B DEB 4.2 13:31:07 10° NNE 13:36:42 84° ESE 13:42:13 10° SSW
STARLINK-57 4.2 13:38:00 40° NNW 13:38:00 40° NNW 13:41:23 10° NE
Cosmos 2341 Rocket 4.0 13:31:55 10° N 13:38:12 85° E 13:44:24 10° S
Cosmos 2322 Rocket 3.4 13:33:30 10° S 13:38:48 43° ESE 13:44:08 10° NE
NOSS 3-2 (A) 4.1 13:33:02 19° NNW 13:39:02 89° WSW 13:47:35 10° SSE
STARLINK-49 4.1 13:39:24 41° NNW 13:39:24 41° NNW 13:42:54 10° NE
STARLINK 1034 4.5 13:37:59 18° SSW 13:40:14 41° SE 13:43:40 10° ENE
STARLINK 1029 4.0 13:39:40 30° S 13:40:41 42° SE 13:43:40 10° ENE
STARLINK-27 4.1 13:41:00 40° NNW 13:41:00 40° NNW 13:44:34 10° NE
ALOS 2.1 13:36:47 10° N 13:41:27 72° WNW 13:46:05 10° SSW
Cosmos 2058 Rocket 4.1 13:37:55 10° SSE 13:42:08 48° E 13:46:21 10° NNE
STARLINK-74 4.1 13:42:35 40° NNW 13:42:35 40° NNW 13:46:12 10° NE
Cosmos 1825 Rocket 3.4 13:38:48 12° N 13:42:50 89° W 13:47:10 10° S
STARLINK 1028 3.4 13:42:51 45° SSE 13:43:16 51° SE 13:46:06 10° ENE
Cosmos 1726 1.9 13:39:41 10° S 13:43:22 82° W 13:47:02 10° N
STARLINK 1021 3.4 13:43:04 45° S 13:43:30 51° SE 13:46:21 10° ENE
STARLINK 1019 3.4 13:43:19 46° S 13:43:44 51° SE 13:46:34 10° ENE
ADEOS Rocket 4.2 13:38:56 10° SE 13:43:52 36° ENE 13:48:56 10° N
STARLINK 1012 3.4 13:43:28 45° S 13:43:55 52° SE 13:46:46 10° ENE
STARLINK-39 4.1 13:44:11 39° NNW 13:44:11 39° NNW 13:47:51 10° NE
STARLINK 1010 3.4 13:43:42 46° S 13:44:09 52° SE 13:47:00 10° ENE
STARLINK 1026 3.4 13:43:54 46° S 13:44:21 52° SE 13:47:13 10° ENE
STARLINK 1013 3.3 13:44:08 45° S 13:44:37 53° SE 13:47:28 10° ENE
STARLINK 1009 3.3 13:44:21 46° S 13:44:49 53° SE 13:47:41 10° ENE
STARLINK 1015 3.3 13:44:35 46° S 13:45:04 54° SE 13:47:55 10° ENE
STARLINK 1016 3.3 13:44:46 46° S 13:45:15 54° SE 13:48:07 10° ENE
STARLINK 1008 3.3 13:45:01 46° S 13:45:30 54° SE 13:48:22 10° ENE
STARLINK 4.1 13:45:49 38° NNW 13:45:49 38° NNW 13:49:32 10° NE
STARLINK 1025 3.3 13:45:26 46° S 13:45:56 55° SE 13:48:48 10° ENE
STARLINK 1017 3.2 13:45:34 46° S 13:46:05 55° SE 13:48:58 10° ENE
STARLINK 1033 4.2 13:43:43 17° SSW 13:46:11 47° SE 13:49:41 10° ENE
STARLINK 1023 3.2 13:45:51 46° S 13:46:23 56° SE 13:49:15 10° ENE
STARLINK 1007 3.2 13:46:05 46° S 13:46:37 56° SE 13:49:30 10° ENE
STARLINK 1048 3.2 13:46:17 46° S 13:46:50 57° SE 13:49:42 10° ENE
STARLINK 1049 3.2 13:46:30 45° S 13:47:04 57° SE 13:49:56 10° NE
STARLINK 1051 3.2 13:46:43 45° S 13:47:18 57° SE 13:50:10 10° NE
STARLINK-69 4.3 13:47:39 34° NNW 13:47:39 34° NNW 13:51:18 10° NE
CENTAUR R/B 3.6 13:40:11 10° NNW 13:48:16 62° NE 13:56:56 10° SE
Cosmos 2227 Rocket 4.2 13:51:51 11° SW 13:51:51 11° SW 13:52:06 10° SW
STARLINK-21 4.2 13:49:00 35° NW 13:49:05 35° NNW 13:52:48 10° NE
STARLINK 1014 3.1 13:48:39 42° SSW 13:49:24 62° SE 13:52:21 10° NE
STARLINK-45 4.4 13:50:58 32° NNW 13:51:00 32° NNW 13:54:39 10° NNE
Cosmos 2263 Rocket 2.8 13:45:58 10° NNW 13:51:32 57° ENE 13:57:06 10° SE
SJ-12 4.1 13:48:06 10° N 13:52:00 45° WNW 13:55:53 10° SW
STARLINK-70 4.3 13:52:21 32° NW 13:52:31 32° NNW 13:56:10 10° NNE
STARLINK-76 4.3 13:53:47 32° NW 13:54:05 33° NNW 13:57:44 10° NNE
METEOR-M 4.1 13:49:53 10° N 13:55:09 59° WNW 14:00:23 10° SSW
STARLINK 4.3 13:55:22 31° NW 13:55:44 32° NNW 13:59:23 10° NNE
CZ-3 R/B 3.2 13:42:53 18° W 13:55:54 46° SSW 14:01:51 10° SE
STARLINK-32 4.4 13:56:57 30° NW 13:57:22 31° NNW 14:01:00 10° NNE
COSMO-SKYMED 1 2.9 13:54:00 10° S 13:58:07 43° W 14:00:39 21° NW
Cosmos 1606 Rocket 3.6 13:53:48 10° SSW 13:58:08 53° W 14:02:28 10° N
STARLINK-40 4.4 13:58:36 29° NW 13:59:05 30° NNW 14:02:42 10° NNE
Cosmos 1726 Rocket 3.5 13:55:17 10° SSW 13:59:41 65° W 14:04:06 10° N
STARLINK-44 4.5 14:00:10 28° NW 14:00:44 30° NNW 14:04:19 10° NNE
Cosmos 2344 4.4 13:59:38 22° WNW 14:02:50 30° NW 14:09:52 10° NNE
SL-4 R/B 1.5 14:01:32 32° NW 14:03:02 87° NE 14:06:26 10° SE
ATLAS 2AS CENTAUR R/B 3.1 13:55:14 10° SW 14:03:04 61° NW 14:11:01 10° NNE
Cosmos 1908 3.1 14:01:32 10° S 14:05:26 81° W 14:09:21 10° N
Cosmos 923 Rocket 4.2 14:01:30 10° SW 14:06:34 49° WNW 14:11:43 10° N
STARLINK 1044 3.3 14:04:12 13° SW 14:07:22 82° SE 14:11:02 10° NE
Meteor 2-10 4.2 14:02:14 10° SSW 14:07:41 56° WNW 14:12:58 10° N
Cosmos 2218 Rocket 4.1 14:02:15 10° N 14:08:41 89° E 14:15:00 10° S
Cosmos 972 Rocket 4.4 14:03:18 10° NNW 14:09:14 54° W 14:14:31 10° S
SJ-7 4.4 14:09:50 10° N 14:13:59 72° WNW 14:18:09 10° SSW
USA 238 DEB 4.1 14:10:06 14° NW 14:16:08 48° WSW 14:23:13 10° S
USA 238 4.1 14:10:11 14° NW 14:16:15 49° WSW 14:23:20 10° S
BREEZE-M DEB (TANK) 4.2 14:13:40 17° NW 14:16:23 31° N 14:26:15 10° ENE
Helios 1A Rocket 2.8 14:12:17 10° N 14:16:25 73° WNW 14:20:32 10° SSW
Genesis I 4.1 14:14:10 10° NNW 14:17:54 45° NE 14:21:34 10° SE
Timation 1 Rocket 4.3 14:12:06 10° NNW 14:18:09 83° WSW 14:24:09 10° SSE
SL-16 R/B 2.1 14:12:40 10° SSW 14:18:19 74° WNW 14:24:01 10° NNE
Cosmos 2228 3.7 14:17:31 10° SW 14:21:27 32° WNW 14:25:24 10° NNW
BREEZE-M DEB (TANK) 3.7 14:21:54 14° WSW 14:22:04 14° SW 14:23:20 10° SSW
Cosmos 1703 3.3 14:19:11 10° NNW 14:23:05 56° W 14:26:54 10° S
Cosmos 2360 Rocket 3.1 14:21:13 10° S 14:26:42 54° ESE 14:32:14 10° NNE
STARLINK 1040 3.2 14:26:47 17° W 14:28:34 36° NW 14:31:15 10° NE
USA 32 4.5 14:24:23 10° NNW 14:29:13 39° W 14:34:01 10° SSW
FENGYUN 3A 4.4 14:25:49 10° N 14:30:24 29° WNW 14:34:58 10° SW
Cosmos 1959 Rocket 4.5 14:24:26 10° NNW 14:30:28 63° W 14:36:31 10° S
STARLINK 1031 3.3 14:27:10 10° WSW 14:30:42 59° NW 14:34:14 10° NE
CZ-4B R/B 3.4 14:27:02 10° N 14:32:21 49° WNW 14:37:33 10° SW
STARLINK 1024 3.3 14:29:58 10° WSW 14:33:30 56° NW 14:37:01 10° NE
Cosmos 1980 Rocket 3.6 14:30:29 12° W 14:33:35 18° NW 14:37:22 10° N
Abrixas rocket 2.5 14:33:52 13° NW 14:36:27 53° NNE 14:39:25 10° ESE
STARLINK 1032 3.5 14:35:39 10° WSW 14:39:08 49° NW 14:42:39 10° NE
SMAP 3.0 14:35:26 10° N 14:40:06 81° WNW 14:44:45 10° SSW
STARLINK 1011 3.5 14:38:29 10° WSW 14:41:57 46° NW 14:45:26 10° NE
Cosmos 2366 rocket 4.2 14:36:44 10° NNW 14:42:52 52° W 14:48:58 10° SSW
CZ-4 R/B 4.0 14:40:13 10° NE 14:43:47 26° E 14:47:19 10° SSE
STARLINK 1036 3.6 14:41:22 10° WSW 14:44:48 44° NW 14:48:16 10° NE
BREEZE-M DEB (TANK) 4.4 14:43:56 10° SW 14:47:22 75° SE 14:57:30 10° NE
AQUARIUS 4.1 14:42:56 10° N 14:47:26 73° WNW 14:51:54 10° SSW
IRS-1C Rocket 4.1 14:42:09 10° NNE 14:47:27 85° WNW 14:52:43 10° SSW
STARLINK 1047 3.8 14:47:09 10° WSW 14:50:32 39° NW 14:53:57 10° NE
STARLINK 1037 3.8 14:48:03 10° WSW 14:51:26 39° NW 14:54:51 10° NE
PSLV R/B 2.2 14:50:46 10° W 14:52:22 38° N 14:54:00 10° ENE
Envisat 3.3 14:47:23 10° NNE 14:52:29 77° ESE 14:57:33 10° S
YAOGAN 6 3.2 14:49:04 10° NNE 14:52:35 60° E 14:56:01 10° S
STARLINK 1035 3.8 14:49:37 10° WSW 14:52:45 34° NW 14:55:52 10° NNE
STARLINK 1059 3.9 14:50:59 10° WSW 14:54:20 36° NW 14:57:43 10° NE
